Time,TemperatureF,DewpointF,PressureIn,WindDirection,WindDirectionDegrees,WindSpeedMPH,WindSpeedGustMPH,Humidity,HourlyPrecipIn,Conditions,Clouds,dailyrainin,SoftwareType,DateUTC
2013-01-01 00:00:00,36.4,16.1,30.11,SSE,161,0.0,3.2,43,0.00,,---,0.00,VWS V14.01,2013-01-01 05:00:00,
2013-01-01 00:01:00,36.4,16.1,30.11,SE,144,4.5,4.5,43,0.00,,---,0.04,VWS V14.01,2013-01-01 05:01:00,
2013-01-01 00:03:00,36.4,16.1,30.11,SSE,164,3.9,3.9,43,0.00,,---,0.00,VWS V14.01,2013-01-01 05:03:00,
2013-01-01 00:09:00,36.4,16.1,30.11,SSE,154,3.2,3.2,43,0.00,,---,0.00,VWS V14.01,2013-01-01 05:09:00,
2013-01-01 00:14:00,36.4,16.1,30.11,South,176,0.0,0.0,43,0.00,,---,0.00,VWS V14.01,2013-01-01 05:14:00,
2013-01-01 00:19:00,36.4,16.1,30.11,SE,142,4.5,4.5,43,0.00,,---,0.00,VWS V14.01,2013-01-01 05:19:00,
2013-01-01 00:24:00,36.4,16.1,30.11,SE,145,3.9,3.9,43,0.00,,---,0.00,VWS V14.01,2013-01-01 05:24:00,
2013-01-01 00:29:00,36.4,16.1,30.11,SSE,149,3.9,3.9,43,0.00,,---,0.00,VWS V14.01,2013-01-01 05:29:00,
2013-01-01 00:34:00,36.4,16.1,30.11,SSW,198,3.9,4.5,43,0.00,,---,0.00,VWS V14.01,2013-01-01 05:34:00,
2013-01-01 00:39:00,36.8,16.5,30.08,West,279,0.0,0.0,43,0.00,,---,0.00,VWS V14.01,2013-01-01 05:39:00,
2013-01-01 00:44:00,37.3,16.9,30.08,NNE,12,0.0,0.0,43,0.00,,---,0.00,VWS V14.01,2013-01-01 05:44:00,
2013-01-01 00:49:00,37.9,18.2,30.08,SSW,208,0.0,0.0,44,0.00,,---,0.00,VWS V14.01,2013-01-01 05:49:00,
2013-01-01 00:55:00,38.0,18.3,30.11,South,170,0.0,0.0,44,0.00,,---,0.00,VWS V14.01,2013-01-01 05:55:00,
2013-01-01 01:00:00,38.2,18.5,30.11,SSW,211,0.0,0.0,44,0.00,,---,0.00,VWS V14.01,2013-01-01 06:00:00,
2013-01-01 01:05:00,38.6,18.1,30.11,SSW,207,5.2,5.8,43,0.00,,---,0.00,VWS V14.01,2013-01-01 06:05:00,
2013-01-01 01:10:00,38.8,18.2,30.11,West,268,3.9,3.9,43,0.00,,---,0.00,VWS V14.01,2013-01-01 06:10:00,
2013-01-01 01:15:00,38.9,18.4,30.11,SSE,157,4.5,5.2,43,0.00,,---,0.00,VWS V14.01,2013-01-01 06:15:00,
2013-01-01 01:20:00,38.9,18.4,30.11,South,169,0.0,3.9,43,0.00,,---,0.00,VWS V14.01,2013-01-01 06:20:00,
2013-01-01 01:26:00,38.9,18.4,30.11,South,179,3.2,3.2,43,0.00,,---,0.00,VWS V14.01,2013-01-01 06:26:00,
2013-01-01 01:31:00,38.9,18.4,30.11,SE,140,4.5,5.2,43,0.00,,---,0.00,VWS V14.01,2013-01-01 06:31:00,
2013-01-01 01:36:00,38.6,18.1,30.11,SE,141,4.5,4.5,43,0.00,,---,0.00,VWS V14.01,2013-01-01 06:36:00,
2013-01-01 01:41:00,38.0,18.3,30.08,SE,141,5.2,5.8,44,0.00,,---,0.00,VWS V14.01,2013-01-01 06:41:00,
2013-01-01 01:46:00,37.9,18.2,30.08,SSE,154,4.5,5.2,44,0.00,,---,0.00,VWS V14.01,2013-01-01 06:46:00,
2013-01-01 01:51:00,37.7,18.0,30.08,SSE,165,5.2,5.2,44,0.00,,---,0.00,VWS V14.01,2013-01-01 06:51:00,
2013-01-01 01:57:00,37.5,17.8,30.11,SSE,148,3.2,4.5,44,0.00,,---,0.00,VWS V14.01,2013-01-01 06:57:00,
2013-01-01 02:02:00,37.3,17.7,30.11,South,174,3.2,3.2,44,0.00,,---,0.00,VWS V14.01,2013-01-01 07:02:00,
2013-01-01 02:07:00,37.3,17.7,30.11,SSW,213,3.2,3.9,44,0.00,,---,0.00,VWS V14.01,2013-01-01 07:07:00,
2013-01-01 02:12:00,37.3,17.7,30.11,West,275,0.0,0.0,44,0.00,,---,0.00,VWS V14.01,2013-01-01 07:12:00,
2013-01-01 02:17:00,37.7,18.0,30.11,WNW,295,0.0,0.0,44,0.00,,---,0.00,VWS V14.01,2013-01-01 07:17:00,
2013-01-01 02:22:00,37.9,18.2,30.11,NW,321,0.0,0.0,44,0.00,,---,0.00,VWS V14.01,2013-01-01 07:22:00,
2013-01-01 02:27:00,38.0,18.3,30.11,NW,311,0.0,0.0,44,0.00,,---,0.00,VWS V14.01,2013-01-01 07:27:00,
2013-01-01 02:33:00,38.4,18.7,30.11,NW,317,0.0,0.0,44,0.00,,---,0.00,VWS V14.01,2013-01-01 07:33:00,
2013-01-01 02:38:00,38.6,18.8,30.11,NW,319,0.0,0.0,44,0.00,,---,0.00,VWS V14.01,2013-01-01 07:38:00,
2013-01-01 02:43:00,38.9,19.1,30.11,NNW,335,0.0,0.0,44,0.00,,---,0.00,VWS V14.01,2013-01-01 07:43:00,
2013-01-01 02:48:00,39.1,19.3,30.11,North,357,0.0,0.0,44,0.00,,---,0.00,VWS V14.01,2013-01-01 07:48:00,
2013-01-01 02:53:00,39.1,19.3,30.11,NW,316,0.0,0.0,44,0.00,,---,0.00,VWS V14.01,2013-01-01 07:53:00,
2013-01-01 02:58:00,39.1,19.3,30.11,WNW,303,0.0,0.0,44,0.00,,---,0.00,VWS V14.01,2013-01-01 07:58:00,
2013-01-01 03:03:00,39.3,19.5,30.11,North,350,0.0,3.9,44,0.00,,---,0.00,VWS V14.01,2013-01-01 08:03:00,
2013-01-01 03:08:00,39.5,19.6,30.11,North,357,3.2,3.2,44,0.00,,---,0.00,VWS V14.01,2013-01-01 08:08:00,
2013-01-01 03:14:00,39.7,19.8,30.11,North,349,0.0,0.0,44,0.00,,---,0.00,VWS V14.01,2013-01-01 08:14:00,
2013-01-01 03:19:00,40.0,20.1,30.11,WNW,282,0.0,0.0,44,0.00,,---,0.00,VWS V14.01,2013-01-01 08:19:00,
2013-01-01 03:24:00,40.4,20.5,30.11,NNW,329,0.0,0.0,44,0.00,,---,0.00,VWS V14.01,2013-01-01 08:24:00,
2013-01-01 03:29:00,40.6,20.6,30.11,WNW,295,0.0,0.0,44,0.00,,---,0.00,VWS V14.01,2013-01-01 08:29:00,
2013-01-01 03:34:00,40.7,20.0,30.11,NW,320,0.0,0.0,43,0.00,,---,0.00,VWS V14.01,2013-01-01 08:34:00,
2013-01-01 03:39:00,40.7,20.0,30.11,SW,227,0.0,4.5,43,0.00,,---,0.00,VWS V14.01,2013-01-01 08:39:00,
2013-01-01 03:45:00,40.7,20.0,30.11,NNW,330,0.0,0.0,43,0.00,,---,0.00,VWS V14.01,2013-01-01 08:45:00,
2013-01-01 03:50:00,40.7,20.0,30.11,WSW,241,0.0,0.0,43,0.00,,---,0.00,VWS V14.01,2013-01-01 08:50:00,
2013-01-01 03:55:00,40.9,20.2,30.11,West,266,0.0,3.9,43,0.00,,---,0.00,VWS V14.01,2013-01-01 08:55:00,
2013-01-01 04:00:00,40.9,20.2,30.11,WSW,239,7.8,7.8,43,0.00,,---,0.00,VWS V14.01,2013-01-01 09:00:00,
2013-01-01 04:05:00,40.9,21.0,30.11,WNW,288,0.0,0.0,44,0.00,,---,0.00,VWS V14.01,2013-01-01 09:05:00,
2013-01-01 04:10:00,40.9,21.0,30.11,WSW,242,5.8,5.8,44,0.00,,---,0.00,VWS V14.01,2013-01-01 09:10:00,
2013-01-01 04:15:00,40.9,21.0,30.11,West,279,0.0,5.2,44,0.00,,---,0.00,VWS V14.01,2013-01-01 09:15:00,
2013-01-01 04:20:00,40.9,21.0,30.11,West,278,0.0,5.8,44,0.00,,---,0.00,VWS V14.01,2013-01-01 09:20:00,
2013-01-01 04:25:00,40.9,21.0,30.08,NNW,338,3.2,4.5,44,0.00,,---,0.00,VWS V14.01,2013-01-01 09:25:00,
2013-01-01 04:30:00,40.9,21.0,30.08,NNW,331,7.1,7.1,44,0.00,,---,0.00,VWS V14.01,2013-01-01 09:30:00,
2013-01-01 04:35:00,40.9,21.0,30.08,NW,306,3.9,5.8,44,0.00,,---,0.00,VWS V14.01,2013-01-01 09:35:00,
2013-01-01 04:40:00,40.9,21.0,30.11,WNW,287,0.0,0.0,44,0.00,,---,0.00,VWS V14.01,2013-01-01 09:40:00,
2013-01-01 04:46:00,40.9,21.0,30.11,NW,320,12.6,15.9,44,0.00,,---,0.00,VWS V14.01,2013-01-01 09:46:00,
2013-01-01 04:51:00,40.9,21.7,30.11,NNW,336,3.9,7.1,46,0.00,,---,0.00,VWS V14.01,2013-01-01 09:51:00,
2013-01-01 04:56:00,40.9,21.7,30.11,NNW,341,7.8,9.1,46,0.00,,---,0.00,VWS V14.01,2013-01-01 09:56:00,
2013-01-01 05:01:00,40.9,21.7,30.11,NW,306,5.8,7.1,46,0.00,,---,0.00,VWS V14.01,2013-01-01 10:01:00,
2013-01-01 05:06:00,40.7,20.8,30.11,North,10,3.9,5.8,44,0.00,,---,0.00,VWS V14.01,2013-01-01 10:06:00,
2013-01-01 05:11:00,40.7,20.8,30.11,NW,322,0.0,0.0,44,0.00,,---,0.00,VWS V14.01,2013-01-01 10:11:00,
2013-01-01 05:16:00,40.7,20.8,30.11,NNW,327,0.0,0.0,44,0.00,,---,0.00,VWS V14.01,2013-01-01 10:16:00,
2013-01-01 05:21:00,40.6,20.6,30.11,NNE,18,0.0,0.0,44,0.00,,---,0.00,VWS V14.01,2013-01-01 10:21:00,
2013-01-01 05:26:00,40.4,20.5,30.11,NNE,18,0.0,0.0,44,0.00,,---,0.00,VWS V14.01,2013-01-01 10:26:00,
2013-01-01 05:31:00,40.4,20.5,30.11,NNE,18,0.0,0.0,44,0.00,,---,0.00,VWS V14.01,2013-01-01 10:31:00,
2013-01-01 05:37:00,40.2,20.3,30.11,NNE,18,0.0,0.0,44,0.00,,---,0.00,VWS V14.01,2013-01-01 10:37:00,
2013-01-01 05:42:00,40.0,20.9,30.08,NNE,18,0.0,0.0,46,0.00,,---,0.00,VWS V14.01,2013-01-01 10:42:00,
2013-01-01 05:47:00,39.8,20.7,30.08,West,259,0.0,0.0,46,0.00,,---,0.00,VWS V14.01,2013-01-01 10:47:00,
2013-01-01 05:52:00,39.7,20.5,30.08,West,259,0.0,0.0,46,0.00,,---,0.00,VWS V14.01,2013-01-01 10:52:00,
2013-01-01 05:57:00,39.7,20.5,30.08,West,259,0.0,0.0,46,0.00,,---,0.00,VWS V14.01,2013-01-01 10:57:00,
2013-01-01 06:02:00,39.5,20.4,30.08,West,259,0.0,0.0,46,0.00,,---,0.00,VWS V14.01,2013-01-01 11:02:00,
2013-01-01 06:07:00,39.5,20.4,30.08,NNW,333,0.0,0.0,46,0.00,,---,0.00,VWS V14.01,2013-01-01 11:07:00,
2013-01-01 06:12:00,39.5,20.4,30.08,NE,41,0.0,0.0,46,0.00,,---,0.00,VWS V14.01,2013-01-01 11:12:00,
2013-01-01 06:17:00,39.5,20.4,30.08,NW,326,0.0,0.0,46,0.00,,---,0.00,VWS V14.01,2013-01-01 11:17:00,
2013-01-01 06:22:00,39.5,20.4,30.08,West,271,0.0,0.0,46,0.00,,---,0.00,VWS V14.01,2013-01-01 11:22:00,
2013-01-01 06:28:00,39.7,21.2,30.08,NE,40,0.0,0.0,47,0.00,,---,0.00,VWS V14.01,2013-01-01 11:28:00,
2013-01-01 06:33:00,39.8,21.4,30.08,SW,234,0.0,0.0,47,0.00,,---,0.00,VWS V14.01,2013-01-01 11:33:00,
2013-01-01 06:38:00,39.8,21.4,30.08,SW,234,0.0,0.0,47,0.00,,---,0.00,VWS V14.01,2013-01-01 11:38:00,
2013-01-01 06:43:00,39.7,21.2,30.08,SW,234,0.0,0.0,47,0.00,,---,0.00,VWS V14.01,2013-01-01 11:43:00,
2013-01-01 06:48:00,39.7,21.2,30.08,SW,234,0.0,0.0,47,0.00,,---,0.00,VWS V14.01,2013-01-01 11:48:00,
2013-01-01 06:53:00,39.5,21.8,30.08,SW,234,0.0,0.0,49,0.00,,---,0.00,VWS V14.01,2013-01-01 11:53:00,
2013-01-01 06:58:00,39.5,21.8,30.08,SW,221,0.0,0.0,49,0.00,,---,0.00,VWS V14.01,2013-01-01 11:58:00,
2013-01-01 07:03:00,39.1,21.4,30.08,SSW,201,3.2,4.5,49,0.00,,---,0.00,VWS V14.01,2013-01-01 12:03:00,
2013-01-01 07:08:00,39.1,21.4,30.08,South,170,0.0,0.0,49,0.00,,---,0.00,VWS V14.01,2013-01-01 12:08:00,
2013-01-01 07:13:00,39.1,22.1,30.08,WSW,242,0.0,3.9,50,0.00,,---,0.00,VWS V14.01,2013-01-01 12:13:00,
2013-01-01 07:18:00,39.3,22.9,30.08,NNW,327,3.2,3.2,51,0.00,,---,0.00,VWS V14.01,2013-01-01 12:18:00,
2013-01-01 07:23:00,39.7,23.9,30.08,NNE,18,0.0,0.0,53,0.00,,---,0.00,VWS V14.01,2013-01-01 12:23:00,
2013-01-01 07:28:00,40.0,24.2,30.08,WSW,257,0.0,5.2,53,0.00,,---,0.00,VWS V14.01,2013-01-01 12:28:00,
2013-01-01 07:34:00,40.4,25.2,30.08,NNW,329,5.2,5.2,54,0.00,,---,0.00,VWS V14.01,2013-01-01 12:34:00,
2013-01-01 07:39:00,40.6,25.3,30.08,West,263,3.2,3.2,54,0.00,,---,0.00,VWS V14.01,2013-01-01 12:39:00,
2013-01-01 07:44:00,40.7,25.5,30.08,West,263,0.0,0.0,54,0.00,,---,0.00,VWS V14.01,2013-01-01 12:44:00,
2013-01-01 07:49:00,40.9,25.7,30.08,SW,221,5.2,5.2,54,0.00,,---,0.00,VWS V14.01,2013-01-01 12:49:00,
2013-01-01 07:54:00,41.1,25.8,30.05,WNW,294,7.1,8.4,54,0.00,,---,0.00,VWS V14.01,2013-01-01 12:54:00,
2013-01-01 07:59:00,41.3,26.0,30.05,SW,223,9.1,9.1,54,0.00,,---,0.00,VWS V14.01,2013-01-01 12:59:00,
2013-01-01 08:04:00,41.3,26.0,30.05,WSW,248,0.0,3.2,54,0.00,,---,0.00,VWS V14.01,2013-01-01 13:04:00,
2013-01-01 08:09:00,41.5,26.2,30.08,South,176,0.0,5.2,54,0.00,,---,0.00,VWS V14.01,2013-01-01 13:09:00,
2013-01-01 08:14:00,41.5,26.2,30.08,WNW,293,0.0,4.5,54,0.00,,---,0.00,VWS V14.01,2013-01-01 13:14:00,
2013-01-01 08:19:00,41.5,26.2,30.08,WNW,288,3.2,3.9,54,0.00,,---,0.00,VWS V14.01,2013-01-01 13:19:00,
2013-01-01 08:25:00,41.6,26.3,30.08,WSW,253,0.0,0.0,54,0.00,,---,0.00,VWS V14.01,2013-01-01 13:25:00,
2013-01-01 08:30:00,41.6,26.3,30.08,WSW,243,0.0,0.0,54,0.00,,---,0.00,VWS V14.01,2013-01-01 13:30:00,
2013-01-01 08:35:00,41.8,26.5,30.08,NNW,334,0.0,3.9,54,0.00,,---,0.00,VWS V14.01,2013-01-01 13:35:00,
2013-01-01 08:40:00,41.8,26.5,30.08,East,80,0.0,0.0,54,0.00,,---,0.00,VWS V14.01,2013-01-01 13:40:00,
2013-01-01 08:45:00,42.0,26.7,30.08,North,3,4.5,4.5,54,0.00,,---,0.00,VWS V14.01,2013-01-01 13:45:00,
2013-01-01 08:50:00,42.0,26.7,30.08,West,260,0.0,0.0,54,0.00,,---,0.00,VWS V14.01,2013-01-01 13:50:00,
2013-01-01 08:55:00,42.0,26.7,30.08,WSW,253,0.0,0.0,54,0.00,,---,0.00,VWS V14.01,2013-01-01 13:55:00,
2013-01-01 09:01:00,42.0,26.7,30.08,West,260,0.0,0.0,54,0.00,,---,0.00,VWS V14.01,2013-01-01 14:01:00,
2013-01-01 09:06:00,42.2,26.8,30.08,WSW,239,3.2,3.2,54,0.00,,---,0.00,VWS V14.01,2013-01-01 14:06:00,
2013-01-01 09:11:00,42.2,26.8,30.08,North,353,0.0,5.2,54,0.00,,---,0.00,VWS V14.01,2013-01-01 14:11:00,
2013-01-01 09:16:00,42.4,27.0,30.08,WNW,295,0.0,0.0,54,0.00,,---,0.00,VWS V14.01,2013-01-01 14:16:00,
2013-01-01 09:21:00,42.4,27.0,30.08,WNW,286,0.0,0.0,54,0.00,,---,0.00,VWS V14.01,2013-01-01 14:21:00,
2013-01-01 09:26:00,42.5,27.2,30.08,North,357,0.0,0.0,54,0.00,,---,0.00,VWS V14.01,2013-01-01 14:26:00,
2013-01-01 09:31:00,42.5,27.2,30.08,NE,35,3.2,3.2,54,0.00,,---,0.00,VWS V14.01,2013-01-01 14:31:00,
2013-01-01 09:37:00,42.5,27.2,30.08,NNE,26,0.0,0.0,54,0.00,,---,0.00,VWS V14.01,2013-01-01 14:37:00,
2013-01-01 09:42:00,42.7,27.3,30.08,SSW,204,0.0,5.2,54,0.00,,---,0.00,VWS V14.01,2013-01-01 14:42:00,
2013-01-01 09:47:00,42.7,27.3,30.08,North,0,0.0,4.5,54,0.00,,---,0.00,VWS V14.01,2013-01-01 14:47:00,
2013-01-01 09:52:00,42.9,27.5,30.08,NW,324,0.0,0.0,54,0.00,,---,0.00,VWS V14.01,2013-01-01 14:52:00,
2013-01-01 09:57:00,43.1,27.7,30.08,NW,326,0.0,0.0,54,0.00,,---,0.00,VWS V14.01,2013-01-01 14:57:00,
2013-01-01 10:02:00,43.1,27.7,30.08,WSW,254,0.0,0.0,54,0.00,,---,0.00,VWS V14.01,2013-01-01 15:02:00,
2013-01-01 10:07:00,43.3,27.8,30.08,WSW,246,5.8,5.8,54,0.00,,---,0.00,VWS V14.01,2013-01-01 15:07:00,
2013-01-01 10:12:00,43.4,28.6,30.08,SW,217,3.2,3.2,56,0.00,,---,0.00,VWS V14.01,2013-01-01 15:12:00,
2013-01-01 10:18:00,43.6,28.8,30.08,WSW,250,3.2,5.8,56,0.00,,---,0.00,VWS V14.01,2013-01-01 15:18:00,
2013-01-01 10:23:00,44.0,28.5,30.08,WSW,244,0.0,0.0,54,0.00,,---,0.00,VWS V14.01,2013-01-01 15:23:00,
2013-01-01 10:28:00,44.2,28.7,30.08,WSW,257,0.0,0.0,54,0.00,,---,0.00,VWS V14.01,2013-01-01 15:28:00,
2013-01-01 10:33:00,44.3,28.9,30.08,SW,229,4.5,4.5,54,0.00,,---,0.00,VWS V14.01,2013-01-01 15:33:00,
2013-01-01 10:38:00,44.5,29.0,30.08,WSW,245,0.0,0.0,54,0.00,,---,0.00,VWS V14.01,2013-01-01 15:38:00,
2013-01-01 10:43:00,44.7,29.8,30.08,West,279,0.0,0.0,56,0.00,,---,0.00,VWS V14.01,2013-01-01 15:43:00,
2013-01-01 10:48:00,44.9,30.0,30.08,WSW,239,0.0,0.0,56,0.00,,---,0.00,VWS V14.01,2013-01-01 15:48:00,
2013-01-01 10:54:00,45.1,30.1,30.08,SW,226,5.2,8.4,56,0.00,,---,0.00,VWS V14.01,2013-01-01 15:54:00,
2013-01-01 10:59:00,45.1,30.1,30.08,West,259,8.4,8.4,56,0.00,,---,0.00,VWS V14.01,2013-01-01 15:59:00,
2013-01-01 11:04:00,45.1,30.1,30.08,SSW,199,0.0,0.0,56,0.00,,---,0.00,VWS V14.01,2013-01-01 16:04:00,
2013-01-01 11:09:00,45.1,30.1,30.08,West,261,0.0,0.0,56,0.00,,---,0.00,VWS V14.01,2013-01-01 16:09:00,
2013-01-01 11:14:00,45.1,30.1,30.08,SW,226,0.0,5.2,56,0.00,,---,0.00,VWS V14.01,2013-01-01 16:14:00,
2013-01-01 11:19:00,45.1,30.1,30.08,WSW,252,0.0,0.0,56,0.00,,---,0.00,VWS V14.01,2013-01-01 16:19:00,
2013-01-01 11:25:00,45.2,30.3,30.05,SW,234,0.0,0.0,56,0.00,,---,0.00,VWS V14.01,2013-01-01 16:25:00,
2013-01-01 11:30:00,45.4,30.5,30.05,NNE,15,3.9,9.1,56,0.00,,---,0.00,VWS V14.01,2013-01-01 16:30:00,
2013-01-01 11:35:00,45.4,30.5,30.05,WSW,247,5.8,7.8,56,0.00,,---,0.00,VWS V14.01,2013-01-01 16:35:00,
2013-01-01 11:40:00,45.4,30.5,30.05,South,178,0.0,5.8,56,0.00,,---,0.00,VWS V14.01,2013-01-01 16:40:00,
2013-01-01 11:45:00,45.4,30.5,30.05,West,276,0.0,0.0,56,0.00,,---,0.00,VWS V14.01,2013-01-01 16:45:00,
2013-01-01 11:50:00,45.4,30.5,30.05,SSW,204,3.9,4.5,56,0.00,,---,0.00,VWS V14.01,2013-01-01 16:50:00,
2013-01-01 11:55:00,45.6,30.0,30.05,NW,312,3.2,3.2,54,0.00,,---,0.00,VWS V14.01,2013-01-01 16:55:00,
2013-01-01 12:00:00,45.6,30.0,30.05,WSW,252,0.0,0.0,54,0.00,,---,0.00,VWS V14.01,2013-01-01 17:00:00,
2013-01-01 12:05:00,45.6,30.0,30.05,West,266,3.2,5.8,54,0.00,,---,0.00,VWS V14.01,2013-01-01 17:05:00,
2013-01-01 12:10:00,45.6,30.0,30.05,SW,229,0.0,5.8,54,0.00,,---,0.00,VWS V14.01,2013-01-01 17:10:00,
2013-01-01 12:16:00,45.6,30.0,30.05,NNW,334,0.0,0.0,54,0.00,,---,0.00,VWS V14.01,2013-01-01 17:16:00,
2013-01-01 12:21:00,45.6,30.0,30.05,West,263,4.5,4.5,54,0.00,,---,0.00,VWS V14.01,2013-01-01 17:21:00,
2013-01-01 12:26:00,45.6,30.0,30.05,West,272,0.0,0.0,54,0.00,,---,0.00,VWS V14.01,2013-01-01 17:26:00,
2013-01-01 12:31:00,45.6,30.0,30.05,North,353,0.0,0.0,54,0.00,,---,0.00,VWS V14.01,2013-01-01 17:31:00,
2013-01-01 12:36:00,45.6,30.0,30.05,NNE,12,0.0,0.0,54,0.00,,---,0.00,VWS V14.01,2013-01-01 17:36:00,
2013-01-01 12:41:00,45.6,30.0,30.02,SSW,213,0.0,4.5,54,0.00,,---,0.00,VWS V14.01,2013-01-01 17:41:00,
2013-01-01 12:47:00,45.6,30.0,30.02,WSW,257,0.0,0.0,54,0.00,,---,0.00,VWS V14.01,2013-01-01 17:47:00,
2013-01-01 12:52:00,45.8,30.2,30.02,NW,314,0.0,6.5,54,0.00,,---,0.00,VWS V14.01,2013-01-01 17:52:00,
2013-01-01 12:57:00,45.8,30.2,30.02,WNW,298,0.0,7.1,54,0.00,,---,0.00,VWS V14.01,2013-01-01 17:57:00,
2013-01-01 13:02:00,45.8,30.2,30.02,North,2,3.2,5.8,54,0.00,,---,0.00,VWS V14.01,2013-01-01 18:02:00,
2013-01-01 13:07:00,45.6,30.0,30.02,SW,218,10.4,12.6,54,0.00,,---,0.00,VWS V14.01,2013-01-01 18:07:00,
2013-01-01 13:12:00,45.6,30.0,30.02,West,275,3.9,7.8,54,0.00,,---,0.00,VWS V14.01,2013-01-01 18:12:00,
2013-01-01 13:17:00,45.6,30.0,30.02,West,273,4.5,4.5,54,0.00,,---,0.00,VWS V14.01,2013-01-01 18:17:00,
2013-01-01 13:22:00,45.6,30.0,30.02,NNE,16,4.5,5.2,54,0.00,,---,0.00,VWS V14.01,2013-01-01 18:22:00,
2013-01-01 13:27:00,45.8,30.2,30.02,West,281,4.5,4.5,54,0.00,,---,0.00,VWS V14.01,2013-01-01 18:27:00,
2013-01-01 13:32:00,45.8,30.2,30.02,NNW,344,0.0,0.0,54,0.00,,---,0.00,VWS V14.01,2013-01-01 18:32:00,
2013-01-01 13:38:00,45.8,30.2,30.02,NNW,341,0.0,4.5,54,0.00,,---,0.00,VWS V14.01,2013-01-01 18:38:00,
2013-01-01 13:43:00,45.8,30.2,30.02,WNW,294,0.0,0.0,54,0.00,,---,0.00,VWS V14.01,2013-01-01 18:43:00,
2013-01-01 13:48:00,45.8,30.2,30.02,NNW,328,4.5,5.2,54,0.00,,---,0.00,VWS V14.01,2013-01-01 18:48:00,
2013-01-01 13:53:00,46.0,30.4,30.02,NW,309,3.2,9.7,54,0.00,,---,0.00,VWS V14.01,2013-01-01 18:53:00,
2013-01-01 13:58:00,46.1,30.5,30.02,WNW,282,4.5,4.5,54,0.00,,---,0.00,VWS V14.01,2013-01-01 18:58:00,
2013-01-01 14:03:00,46.1,30.5,30.02,North,4,4.5,4.5,54,0.00,,---,0.00,VWS V14.01,2013-01-01 19:03:00,
2013-01-01 14:08:00,46.3,30.7,29.99,NW,318,3.2,4.5,54,0.00,,---,0.00,VWS V14.01,2013-01-01 19:08:00,
2013-01-01 14:13:00,46.5,30.9,29.99,NNW,333,3.2,3.2,54,0.00,,---,0.00,VWS V14.01,2013-01-01 19:13:00,
2013-01-01 14:19:00,46.7,31.0,29.99,North,353,0.0,0.0,54,0.00,,---,0.00,VWS V14.01,2013-01-01 19:19:00,
2013-01-01 14:24:00,46.9,31.2,29.99,WNW,287,0.0,0.0,54,0.00,,---,0.00,VWS V14.01,2013-01-01 19:24:00,
2013-01-01 14:29:00,47.0,31.4,29.99,WSW,244,0.0,7.1,54,0.00,,---,0.00,VWS V14.01,2013-01-01 19:29:00,
2013-01-01 14:34:00,47.0,31.4,29.99,SSW,199,0.0,0.0,54,0.00,,---,0.00,VWS V14.01,2013-01-01 19:34:00,
2013-01-01 14:39:00,47.0,31.4,29.99,North,353,0.0,3.2,54,0.00,,---,0.00,VWS V14.01,2013-01-01 19:39:00,
2013-01-01 14:44:00,47.0,31.4,29.99,WNW,290,4.5,5.8,54,0.00,,---,0.00,VWS V14.01,2013-01-01 19:44:00,
2013-01-01 14:49:00,47.0,31.4,29.99,West,270,0.0,7.8,54,0.00,,---,0.00,VWS V14.01,2013-01-01 19:49:00,
2013-01-01 14:54:00,47.0,31.4,30.02,North,0,0.0,4.5,54,0.00,,---,0.00,VWS V14.01,2013-01-01 19:54:00,
2013-01-01 14:59:00,47.0,31.4,30.02,North,7,3.9,3.9,54,0.00,,---,0.00,VWS V14.01,2013-01-01 19:59:00,
2013-01-01 15:04:00,47.0,31.4,30.02,WNW,291,3.9,7.1,54,0.00,,---,0.00,VWS V14.01,2013-01-01 20:04:00,
2013-01-01 15:10:00,47.0,31.4,30.02,NNW,331,4.5,7.8,54,0.00,,---,0.00,VWS V14.01,2013-01-01 20:10:00,
2013-01-01 15:15:00,46.9,31.2,30.02,North,0,0.0,3.9,54,0.00,,---,0.00,VWS V14.01,2013-01-01 20:15:00,
2013-01-01 15:20:00,46.9,31.2,30.02,WSW,240,4.5,7.1,54,0.00,,---,0.00,VWS V14.01,2013-01-01 20:20:00,
2013-01-01 15:25:00,46.9,31.2,30.02,WNW,298,0.0,0.0,54,0.00,,---,0.00,VWS V14.01,2013-01-01 20:25:00,
2013-01-01 15:30:00,46.9,31.2,30.02,West,278,0.0,0.0,54,0.00,,---,0.00,VWS V14.01,2013-01-01 20:30:00,
2013-01-01 15:35:00,46.9,31.2,30.02,WNW,288,0.0,0.0,54,0.00,,---,0.00,VWS V14.01,2013-01-01 20:35:00,
2013-01-01 15:40:00,46.9,31.2,30.02,SSW,196,0.0,0.0,54,0.00,,---,0.00,VWS V14.01,2013-01-01 20:40:00,
2013-01-01 15:46:00,46.7,31.0,30.02,NNE,31,0.0,3.2,54,0.00,,---,0.00,VWS V14.01,2013-01-01 20:46:00,
2013-01-01 15:51:00,46.5,30.9,30.02,NNW,344,0.0,4.5,54,0.00,,---,0.00,VWS V14.01,2013-01-01 20:51:00,
2013-01-01 15:56:00,46.5,30.9,30.02,NNW,331,0.0,0.0,54,0.00,,---,0.00,VWS V14.01,2013-01-01 20:56:00,
2013-01-01 16:01:00,46.5,30.9,30.02,North,353,0.0,3.2,54,0.00,,---,0.00,VWS V14.01,2013-01-01 21:01:00,
2013-01-01 16:06:00,46.3,30.7,30.02,West,274,0.0,0.0,54,0.00,,---,0.00,VWS V14.01,2013-01-01 21:06:00,
2013-01-01 16:11:00,46.3,30.7,30.05,NW,316,5.8,5.8,54,0.00,,---,0.00,VWS V14.01,2013-01-01 21:11:00,
2013-01-01 16:16:00,46.1,30.5,30.05,WSW,254,0.0,0.0,54,0.00,,---,0.00,VWS V14.01,2013-01-01 21:16:00,
2013-01-01 16:21:00,46.1,30.5,30.05,WNW,290,0.0,0.0,54,0.00,,---,0.00,VWS V14.01,2013-01-01 21:21:00,
2013-01-01 16:27:00,46.0,30.4,30.05,NNW,337,0.0,0.0,54,0.00,,---,0.00,VWS V14.01,2013-01-01 21:27:00,
2013-01-01 16:32:00,45.8,30.2,30.05,WNW,284,4.5,4.5,54,0.00,,---,0.00,VWS V14.01,2013-01-01 21:32:00,
2013-01-01 16:37:00,45.8,30.2,30.05,NW,324,0.0,0.0,54,0.00,,---,0.00,VWS V14.01,2013-01-01 21:37:00,
2013-01-01 16:42:00,45.8,30.2,30.05,NNW,327,0.0,0.0,54,0.00,,---,0.00,VWS V14.01,2013-01-01 21:42:00,
2013-01-01 16:47:00,45.8,30.2,30.05,NNE,18,0.0,3.2,54,0.00,,---,0.00,VWS V14.01,2013-01-01 21:47:00,
2013-01-01 16:52:00,45.6,30.0,30.05,WNW,287,0.0,0.0,54,0.00,,---,0.00,VWS V14.01,2013-01-01 21:52:00,
2013-01-01 16:57:00,45.4,29.9,30.05,WSW,243,0.0,0.0,54,0.00,,---,0.00,VWS V14.01,2013-01-01 21:57:00,
2013-01-01 17:02:00,45.4,29.9,30.05,WNW,300,0.0,0.0,54,0.00,,---,0.00,VWS V14.01,2013-01-01 22:02:00,
2013-01-01 17:07:00,45.2,29.7,30.05,WNW,301,0.0,0.0,54,0.00,,---,0.00,VWS V14.01,2013-01-01 22:07:00,
2013-01-01 17:12:00,45.2,29.7,30.05,North,353,3.2,3.2,54,0.00,,---,0.00,VWS V14.01,2013-01-01 22:12:00,
2013-01-01 17:18:00,45.2,29.7,30.05,WNW,289,0.0,0.0,54,0.00,,---,0.00,VWS V14.01,2013-01-01 22:18:00,
2013-01-01 17:23:00,45.1,29.5,30.05,WNW,295,0.0,0.0,54,0.00,,---,0.00,VWS V14.01,2013-01-01 22:23:00,
2013-01-01 17:28:00,45.1,29.5,30.05,NW,310,0.0,0.0,54,0.00,,---,0.00,VWS V14.01,2013-01-01 22:28:00,
2013-01-01 17:33:00,44.9,29.4,30.05,West,265,0.0,0.0,54,0.00,,---,0.00,VWS V14.01,2013-01-01 22:33:00,
2013-01-01 17:38:00,44.9,29.4,30.05,WNW,289,0.0,0.0,54,0.00,,---,0.00,VWS V14.01,2013-01-01 22:38:00,
2013-01-01 17:43:00,44.7,29.2,30.05,NW,316,0.0,0.0,54,0.00,,---,0.00,VWS V14.01,2013-01-01 22:43:00,
2013-01-01 17:48:00,44.7,29.8,30.05,NNW,345,0.0,5.2,56,0.00,,---,0.00,VWS V14.01,2013-01-01 22:48:00,
2013-01-01 17:53:00,44.5,29.6,30.05,NNW,335,0.0,3.2,56,0.00,,---,0.00,VWS V14.01,2013-01-01 22:53:00,
2013-01-01 17:58:00,44.5,29.6,30.05,NW,307,0.0,0.0,56,0.00,,---,0.00,VWS V14.01,2013-01-01 22:58:00,
2013-01-01 18:03:00,44.5,29.6,30.05,NW,319,0.0,0.0,56,0.00,,---,0.00,VWS V14.01,2013-01-01 23:03:00,
2013-01-01 18:09:00,44.5,29.6,30.05,WNW,301,0.0,0.0,56,0.00,,---,0.00,VWS V14.01,2013-01-01 23:09:00,
2013-01-01 18:14:00,44.3,29.5,30.05,WNW,298,0.0,0.0,56,0.00,,---,0.00,VWS V14.01,2013-01-01 23:14:00,
2013-01-01 18:19:00,44.3,29.5,30.05,WSW,252,0.0,0.0,56,0.00,,---,0.00,VWS V14.01,2013-01-01 23:19:00,
2013-01-01 18:24:00,44.3,29.5,30.05,West,277,0.0,0.0,56,0.00,,---,0.00,VWS V14.01,2013-01-01 23:24:00,
2013-01-01 18:29:00,44.2,29.3,30.05,West,273,0.0,0.0,56,0.00,,---,0.00,VWS V14.01,2013-01-01 23:29:00,
2013-01-01 18:34:00,44.2,29.3,30.05,West,264,0.0,0.0,56,0.00,,---,0.00,VWS V14.01,2013-01-01 23:34:00,
2013-01-01 18:39:00,44.2,29.3,30.05,West,275,0.0,0.0,56,0.00,,---,0.00,VWS V14.01,2013-01-01 23:39:00,
2013-01-01 18:44:00,44.0,29.1,30.05,West,275,0.0,0.0,56,0.00,,---,0.00,VWS V14.01,2013-01-01 23:44:00,
2013-01-01 18:49:00,44.0,29.1,30.05,West,274,0.0,0.0,56,0.00,,---,0.00,VWS V14.01,2013-01-01 23:49:00,
2013-01-01 18:55:00,43.8,29.0,30.05,NNE,21,3.2,3.2,56,0.00,,---,0.00,VWS V14.01,2013-01-01 23:55:00,
2013-01-01 19:00:00,43.8,29.0,30.05,NNW,331,0.0,0.0,56,0.00,,---,0.00,VWS V14.01,2013-01-02 00:00:00,
2013-01-01 19:05:00,43.8,29.0,30.05,North,4,0.0,0.0,56,0.00,,---,0.00,VWS V14.01,2013-01-02 00:05:00,
2013-01-01 19:10:00,43.8,29.0,30.05,West,273,0.0,0.0,56,0.00,,---,0.00,VWS V14.01,2013-01-02 00:10:00,
2013-01-01 19:15:00,43.8,29.0,30.05,WSW,238,0.0,0.0,56,0.00,,---,0.00,VWS V14.01,2013-01-02 00:15:00,
2013-01-01 19:21:00,43.8,29.0,30.05,West,270,0.0,0.0,56,0.00,,---,0.00,VWS V14.01,2013-01-02 00:21:00,
2013-01-01 19:26:00,43.8,29.0,30.05,West,270,0.0,0.0,56,0.00,,---,0.00,VWS V14.01,2013-01-02 00:26:00,
2013-01-01 19:31:00,43.8,29.0,30.05,WNW,301,0.0,0.0,56,0.00,,---,0.00,VWS V14.01,2013-01-02 00:31:00,
2013-01-01 19:36:00,43.8,29.0,30.05,North,10,0.0,0.0,56,0.00,,---,0.00,VWS V14.01,2013-01-02 00:36:00,
2013-01-01 19:41:00,43.8,29.0,30.05,North,357,0.0,0.0,56,0.00,,---,0.00,VWS V14.01,2013-01-02 00:41:00,
2013-01-01 19:46:00,43.8,29.0,30.05,NNW,335,0.0,0.0,56,0.00,,---,0.00,VWS V14.01,2013-01-02 00:46:00,
2013-01-01 19:51:00,43.8,29.0,30.05,West,269,0.0,0.0,56,0.00,,---,0.00,VWS V14.01,2013-01-02 00:51:00,
2013-01-01 19:56:00,43.8,29.0,30.05,North,0,0.0,0.0,56,0.00,,---,0.00,VWS V14.01,2013-01-02 00:56:00,
2013-01-01 20:02:00,43.8,29.0,30.05,West,267,0.0,0.0,56,0.00,,---,0.00,VWS V14.01,2013-01-02 01:02:00,
2013-01-01 20:07:00,43.8,29.0,30.05,NW,307,0.0,0.0,56,0.00,,---,0.00,VWS V14.01,2013-01-02 01:07:00,
2013-01-01 20:12:00,43.6,29.4,30.05,WNW,292,0.0,0.0,57,0.00,,---,0.00,VWS V14.01,2013-01-02 01:12:00,
2013-01-01 20:17:00,43.6,29.4,30.05,WNW,287,0.0,0.0,57,0.00,,---,0.00,VWS V14.01,2013-01-02 01:17:00,
2013-01-01 20:22:00,43.4,29.2,30.05,North,353,0.0,0.0,57,0.00,,---,0.00,VWS V14.01,2013-01-02 01:22:00,
2013-01-01 20:27:00,43.4,29.2,30.05,NW,308,0.0,0.0,57,0.00,,---,0.00,VWS V14.01,2013-01-02 01:27:00,
2013-01-01 20:32:00,43.4,29.2,30.05,SW,227,0.0,0.0,57,0.00,,---,0.00,VWS V14.01,2013-01-02 01:32:00,
2013-01-01 20:37:00,43.4,29.2,30.05,WNW,302,0.0,0.0,57,0.00,,---,0.00,VWS V14.01,2013-01-02 01:37:00,
2013-01-01 20:42:00,43.4,29.2,30.08,WNW,294,0.0,0.0,57,0.00,,---,0.00,VWS V14.01,2013-01-02 01:42:00,
2013-01-01 20:47:00,43.3,29.1,30.08,WNW,294,0.0,0.0,57,0.00,,---,0.00,VWS V14.01,2013-01-02 01:47:00,
2013-01-01 20:52:00,43.3,29.1,30.08,NW,319,5.2,5.2,57,0.00,,---,0.00,VWS V14.01,2013-01-02 01:52:00,
2013-01-01 20:57:00,43.3,29.1,30.08,NNW,345,4.5,4.5,57,0.00,,---,0.00,VWS V14.01,2013-01-02 01:57:00,
2013-01-01 21:02:00,43.3,29.1,30.08,North,357,4.5,5.8,57,0.00,,---,0.00,VWS V14.01,2013-01-02 02:02:00,
2013-01-01 21:07:00,43.3,29.1,30.08,NNW,346,4.5,4.5,57,0.00,,---,0.00,VWS V14.01,2013-01-02 02:07:00,
2013-01-01 21:12:00,43.3,29.1,30.08,NW,321,4.5,4.5,57,0.00,,---,0.00,VWS V14.01,2013-01-02 02:12:00,
2013-01-01 21:17:00,43.3,29.1,30.08,NW,315,0.0,0.0,57,0.00,,---,0.00,VWS V14.01,2013-01-02 02:17:00,
2013-01-01 21:23:00,43.1,28.9,30.08,NW,317,0.0,0.0,57,0.00,,---,0.00,VWS V14.01,2013-01-02 02:23:00,
2013-01-01 21:28:00,43.1,28.9,30.05,NW,315,0.0,0.0,57,0.00,,---,0.00,VWS V14.01,2013-01-02 02:28:00,
2013-01-01 21:33:00,42.9,28.7,30.05,NNW,339,4.5,5.2,57,0.00,,---,0.00,VWS V14.01,2013-01-02 02:33:00,
2013-01-01 21:38:00,42.9,28.7,30.08,NNW,339,0.0,0.0,57,0.00,,---,0.00,VWS V14.01,2013-01-02 02:38:00,
2013-01-01 21:43:00,42.9,28.7,30.08,NNW,339,0.0,0.0,57,0.00,,---,0.00,VWS V14.01,2013-01-02 02:43:00,
2013-01-01 21:48:00,42.7,28.6,30.08,NNW,341,3.2,3.2,57,0.00,,---,0.00,VWS V14.01,2013-01-02 02:48:00,
2013-01-01 21:53:00,42.5,28.4,30.08,North,353,0.0,0.0,57,0.00,,---,0.00,VWS V14.01,2013-01-02 02:53:00,
2013-01-01 21:59:00,42.4,28.2,30.08,North,0,0.0,0.0,57,0.00,,---,0.00,VWS V14.01,2013-01-02 02:59:00,
2013-01-01 22:04:00,42.0,27.9,30.08,NNE,12,4.5,5.2,57,0.00,,---,0.00,VWS V14.01,2013-01-02 03:04:00,
2013-01-01 22:09:00,41.8,28.3,30.08,North,8,0.0,0.0,58,0.00,,---,0.00,VWS V14.01,2013-01-02 03:09:00,
2013-01-01 22:14:00,41.6,28.1,30.08,NE,34,0.0,0.0,58,0.00,,---,0.00,VWS V14.01,2013-01-02 03:14:00,
2013-01-01 22:19:00,41.5,28.0,30.08,NE,34,0.0,0.0,58,0.00,,---,0.00,VWS V14.01,2013-01-02 03:19:00,
2013-01-01 22:24:00,41.3,27.8,30.08,NE,34,0.0,0.0,58,0.00,,---,0.00,VWS V14.01,2013-01-02 03:24:00,
2013-01-01 22:30:00,41.1,27.6,30.08,NE,34,0.0,0.0,58,0.00,,---,0.00,VWS V14.01,2013-01-02 03:30:00,
2013-01-01 22:35:00,40.9,27.5,30.08,NE,34,0.0,0.0,58,0.00,,---,0.00,VWS V14.01,2013-01-02 03:35:00,
2013-01-01 22:40:00,40.9,27.5,30.08,NE,34,0.0,0.0,58,0.00,,---,0.00,VWS V14.01,2013-01-02 03:40:00,
2013-01-01 22:45:00,40.9,27.5,30.08,NE,34,0.0,0.0,58,0.00,,---,0.00,VWS V14.01,2013-01-02 03:45:00,
2013-01-01 22:50:00,40.9,28.0,30.08,NE,34,0.0,0.0,60,0.00,,---,0.00,VWS V14.01,2013-01-02 03:50:00,
2013-01-01 22:55:00,40.7,27.9,30.08,NE,34,0.0,0.0,60,0.00,,---,0.00,VWS V14.01,2013-01-02 03:55:00,
2013-01-01 23:01:00,40.7,27.9,30.08,NE,34,0.0,0.0,60,0.00,,---,0.00,VWS V14.01,2013-01-02 04:01:00,
2013-01-01 23:06:00,40.4,27.5,30.08,SE,137,0.0,0.0,60,0.00,,---,0.00,VWS V14.01,2013-01-02 04:06:00,
2013-01-01 23:11:00,40.2,27.4,30.08,SE,137,0.0,0.0,60,0.00,,---,0.00,VWS V14.01,2013-01-02 04:11:00,
2013-01-01 23:16:00,40.2,27.4,30.08,SE,137,0.0,0.0,60,0.00,,---,0.00,VWS V14.01,2013-01-02 04:16:00,
2013-01-01 23:21:00,40.0,27.7,30.08,SE,137,0.0,0.0,61,0.00,,---,0.00,VWS V14.01,2013-01-02 04:21:00,
2013-01-01 23:26:00,39.8,27.6,30.08,SE,137,0.0,0.0,61,0.00,,---,0.00,VWS V14.01,2013-01-02 04:26:00,
2013-01-01 23:31:00,39.8,27.6,30.08,SE,137,0.0,0.0,61,0.00,,---,0.00,VWS V14.01,2013-01-02 04:31:00,
2013-01-01 23:36:00,39.7,27.4,30.08,SE,137,0.0,0.0,61,0.00,,---,0.00,VWS V14.01,2013-01-02 04:36:00,
2013-01-01 23:42:00,39.7,27.4,30.08,SE,137,0.0,0.0,61,0.00,,---,0.00,VWS V14.01,2013-01-02 04:42:00,
2013-01-01 23:47:00,39.5,27.2,30.08,SE,137,0.0,0.0,61,0.00,,---,0.00,VWS V14.01,2013-01-02 04:47:00,
2013-01-01 23:52:00,39.5,27.2,30.08,SE,137,0.0,0.0,61,0.00,,---,0.00,VWS V14.01,2013-01-02 04:52:00,
2013-01-01 23:57:00,39.3,27.6,30.08,SE,137,0.0,0.0,63,0.00,,---,0.00,VWS V14.01,2013-01-02 04:57:00,